Miscellaneous Local Product
Issued by NWS North Platte, NE

Home | Current Version | Previous Version | Text Only | Print | Product List | Glossary On
Versions: 1 2 3 4 5 6 7 8 9 10 11 12 13 14 15 16 17 18 19 20 21 22 23 24 25 26 27 28 29 30 31 32 33 34 35 36 37 38 39 40 41 42 43 44 45 46 47 48 49 50
000
AXUS43 KLBF 282010
MISLBF


WESTERN AND NORTH CENTRAL NEBRASKA HOURLY WEATHER ROUNDUP
NATIONAL WEATHER SERVICE NORTH PLATTE NE
200 PM CST SUN DEC 28 2014

***STATIONS NOT REPORTING VARIABLES SUCH AS SKY/WEATHER OR
PRESSURE ARE PROVIDED BY THE NEBRASKA DEPARTMENT OF
ROADS...RAWS...AND APRS NETWORKS...AND ARE NOT UNDER
NATIONAL WEATHER SERVICE QUALITY CONTROL***

...OBSERVATIONS IN AND NEAR THE EASTERN PANHANDLE OF NEBRASKA...

CITY           SKY/WX    TMP DP  RH WIND       PRES   REMARKS
PINE RIDGE     CLOUDY    28  17  63 CALM      29.91F
CHADRON        CLOUDY    25  16  68 CALM      29.91F
ALLIANCE       LGT SNOW  28  24  85 NW12      29.88F FOG     WCI  18
SIDNEY         CLOUDY    28  14  55 S6        29.89F WCI  22
WHITECLAY        N/A     27  13  56 E3          N/A
CRESCENT LAKE    N/A     32  14  46 S5          N/A  WCI  27
LISCO            N/A     26  14  60 CALM        N/A
BIG SPRINGS      N/A     24  16  71 W3          N/A
$$

...OBSERVATIONS IN NORTH CENTRAL NEBRASKA...

CITY           SKY/WX    TMP DP  RH WIND       PRES   REMARKS
VALENTINE      CLOUDY    23  10  57 CALM      29.99F
THEDFORD       CLOUDY    28  17  62 CALM      29.97F
AINSWORTH      CLOUDY    21  13  70 CALM      29.99F
O`NEILL        MOSUNNY   19  14  81 CALM      30.06R
ORD            CLOUDY    23  14  68 CALM      30.03F
BROKEN BOW     CLOUDY    26  17  68 SW8       30.00F WCI  18
BROWNLEE         N/A     26   9  50 CALM        N/A
SPRINGVIEW       N/A     26  15  61 CALM        N/A
BREWSTER         N/A     27  18  70 E3          N/A
ROSE             N/A     25  19  77 MISG        N/A
SARGENT          N/A     25  18  74 CALM        N/A
COMSTOCK         N/A     30  18  59 E5          N/A  WCI  25
CHAMBERS         N/A     31  15  50 NE3         N/A
EWING            N/A     24  17  74 CALM        N/A
$$

...OBSERVATIONS IN SOUTHWEST NEBRASKA AND FAR NORTHEAST COLORADO...

CITY           SKY/WX    TMP DP  RH WIND       PRES   REMARKS
WRAY           MOCLDY    31  17  55 CALM      29.92
HOLYOKE        FAIR      32  18  55 CALM      29.92F
IMPERIAL       CLOUDY    27  14  58 SE10      29.94F WCI  17
OGALLALA       PTSUNNY   24  15  70 CALM      29.93F
NORTH PLATTE   CLOUDY    24  12  60 CALM      29.98F
MCCOOK         CLOUDY    25  15  66 CALM      29.99F
LEXINGTON      PTSUNNY   25  16  70 CALM      30.02F
PAXTON           N/A     28  21  74 CALM        N/A
BRADY            N/A     23  13  67 CALM        N/A
GOTHENBURG       N/A     27  13  54 CALM        N/A
CALLAWAY         N/A     27  19  72 CALM        N/A
$$

...NORTH PLATTE AREA...

CITY           SKY/WX    TMP DP  RH WIND       PRES   REMARKS
AIRPORT        CLOUDY    24  12  60 CALM      29.98F
DOWNTOWN         N/A     25  15  64 CALM        N/A
$$

...SOME WEATHER OBSERVATIONS FROM AROUND THE REGION...

CITY           SKY/WX    TMP DP  RH WIND       PRES   REMARKS
DENVER         MOSUNNY   34  16  47 S3        29.82F
LARAMIE        PTSUNNY   19  10  68 W7        29.80S WCI  10
CHEYENNE       MOSUNNY   33  11  39 W6        29.81S WCI  28
SCOTTSBLUFF    CLOUDY    30  21  69 W7        29.88F WCI  23
RAPID CITY     CLOUDY    26  15  63 NE9       29.93F WCI  17
PIERRE         PTSUNNY   19  15  84 E13       30.07S WCI   6
WINNER         FAIR      20  11  68 E8        30.04F WCI  10
SIOUX FALLS    CLOUDY    17  14  88 NE9       30.14R WCI   6
OMAHA          PTSUNNY   32  20  61 CALM      30.13F
GRAND ISLAND   CLOUDY    27  14  58 CALM      30.06F
KANSAS CITY    MOSUNNY   39  17  41 SW7       30.13F WCI  34
WICHITA        MOSUNNY   41  20  43 S13       30.11F
HAYS           MOSUNNY   39  19  45 S9        30.03F WCI  33
LIBERAL        SUNNY     37  21  52 S8        29.98F WCI  31
GOODLAND       CLOUDY    32  23  69 SE5       29.92F WCI  27
$$



USA.gov is the U.S. government's official web portal to all federal, state and local government web resources and services.